This is the latest recevied weather packets stored in our database for station/object KB1FFS. If no packets are shown the sender has not sent any weather packets the latest 10 day(s).
| Time | Temp. | Humidity | Pressure | Rain* | Wind** | Luminosity | Snow |
|---|---|---|---|---|---|---|---|
| 1777861258 | 22.78° C | 41% | 1016.3 hPa | 0 mm | - | 0 W/m² | - |
| 1777860955 | 22.78° C | 41% | 1016.4 hPa | 0 mm | - | 0 W/m² | - |
| 1777860652 | 22.78° C | 40% | 1016.2 hPa | 0 mm | - | 0 W/m² | - |
| 1777860349 | 23.33° C | 40% | 1016.5 hPa | 0 mm | - | 0 W/m² | - |
| 1777860046 | 23.33° C | 40% | 1016.2 hPa | 0 mm | - | 0 W/m² | - |
| 1777859742 | 23.33° C | 40% | 1016.4 hPa | 0 mm | - | 0 W/m² | - |
| 1777859438 | 23.89° C | 40% | 1016.4 hPa | 0 mm | - | 0 W/m² | - |
| 1777859134 | 23.89° C | 39% | 1016.4 hPa | 0 mm | - | 0 W/m² | - |
| 1777858832 | 23.89° C | 38% | 1016.3 hPa | 0 mm | - | 0 W/m² | - |
| 1777858529 | 23.89° C | 38% | 1016.2 hPa | 0 mm | - | 0 W/m² | - |
| 1777858226 | 23.89° C | 38% | 1016.2 hPa | 0 mm | - | 0 W/m² | - |
| 1777857924 | 24.44° C | 37% | 1016.2 hPa | 0 mm | - | 0 W/m² | - |
| 1777857621 | 24.44° C | 37% | 1016.2 hPa | 0 mm | - | 1 W/m² | - |
| 1777857318 | 24.44° C | 36% | 1016.2 hPa | 0 mm | - | 2 W/m² | - |
| 1777857014 | 25° C | 35% | 1016 hPa | 0 mm | - | 3 W/m² | - |
| 1777856710 | 25° C | 35% | 1016 hPa | 0 mm | - | 5 W/m² | - |
| 1777856406 | 25° C | 35% | 1015.9 hPa | 0 mm | - | 7 W/m² | - |
| 1777856102 | 25° C | 34% | 1016.1 hPa | 0 mm | - | 13 W/m² | - |
| 1777855800 | 25.56° C | 34% | 1016.1 hPa | 0 mm | - | 17 W/m² | - |
| 1777855498 | 25.56° C | 34% | 1016.1 hPa | 0 mm | - | 23 W/m² | - |
| 1777855194 | 25.56° C | 33% | 1015.8 hPa | 0 mm | - | 26 W/m² | - |
| 1777854890 | 25.56° C | 33% | 1015.9 hPa | 0 mm | - | 31 W/m² | - |
| 1777854588 | 26.11° C | 34% | 1016 hPa | 0 mm | - | 30 W/m² | - |
| 1777854285 | 26.11° C | 33% | 1016.2 hPa | 0 mm | - | 25 W/m² | - |
| 1777853982 | 26.11° C | 32% | 1016.1 hPa | 0 mm | - | 28 W/m² | - |
* Rain latest hour (hover to see other rain measurements)
** Current wind speed in m/s (hover to see current wind gust speed)